Location: ????????
(55.4000°N, 39.1167°E)
Time: 13:41:31
(UTC+00:00)

Cosmos 1833 Rocket - Pass Details

Date: 19 May 2025
Orbit: 831 x 838 km, 71.0° (Epoch: 19 June)

Event Time Altitude Azimuth Distance (km) Brightness Sun altitude
Rises 20:26:50 0° 245° (WSW) 3,388 5.7 -13.8°
Reaches altitude 10° 20:29:28 10° 254° (WSW) 2,457 5.1 -13.9°
Maximum altitude 20:34:39 36° 321° (NW) 1,300 4.3 -14.0°
Drops below altitude 10° 20:39:52 10° 28° (NNE) 2,466 5.9 -14.2°
Sets 20:42:31 0° 37° (NE) 3,402 6.6 -14.2°
